TimeAKST,TemperatureF,Dew PointF,Humidity,Sea Level PressureIn,VisibilityMPH,Wind Direction,Wind SpeedMPH,Gust SpeedMPH,PrecipitationIn,Events,Conditions,WindDirDegrees,DateUTC
12:16 AM,-14.8,-16.6,92,29.56,10.0,NE,4.6,-,N/A,,Clear,50,2012-12-04 09:16:00
12:36 AM,-13.0,-18.4,77,29.56,10.0,NE,3.5,-,N/A,,Clear,50,2012-12-04 09:36:00
12:56 AM,-16.6,-23.8,70,29.55,10.0,NE,3.5,-,N/A,,Clear,40,2012-12-04 09:56:00
1:16 AM,-16.6,-20.2,84,29.55,10.0,Calm,Calm,-,N/A,,Clear,0,2012-12-04 10:16:00
1:36 AM,-16.6,-18.4,92,29.55,10.0,NE,3.5,-,N/A,,Clear,40,2012-12-04 10:36:00
1:56 AM,-16.6,-25.6,64,29.55,10.0,NE,3.5,-,N/A,,Clear,50,2012-12-04 10:56:00
2:16 AM,-16.6,-18.4,92,29.55,10.0,NE,4.6,-,N/A,,Clear,50,2012-12-04 11:16:00
2:36 AM,-16.6,-20.2,84,29.54,10.0,ENE,3.5,-,N/A,,Clear,60,2012-12-04 11:36:00
2:56 AM,-14.8,-20.2,77,29.55,10.0,Calm,Calm,-,N/A,,Clear,0,2012-12-04 11:56:00
3:16 AM,-16.6,-18.4,92,29.54,10.0,NE,3.5,-,N/A,,Clear,40,2012-12-04 12:16:00
3:36 AM,-18.4,-25.6,70,29.54,10.0,NE,3.5,-,N/A,,Clear,50,2012-12-04 12:36:00
3:56 AM,-16.6,-16.6,100,29.53,10.0,ENE,4.6,-,N/A,,Clear,60,2012-12-04 12:56:00
4:16 AM,-16.6,-22.0,76,29.52,10.0,ENE,4.6,-,N/A,,Mostly Cloudy,70,2012-12-04 13:16:00
4:36 AM,-14.8,-16.6,92,29.52,10.0,East,4.6,-,N/A,,Overcast,80,2012-12-04 13:36:00
4:56 AM,-11.2,-11.2,100,29.52,10.0,ENE,4.6,-,N/A,,Overcast,60,2012-12-04 13:56:00
5:16 AM,-9.4,-14.8,77,29.52,10.0,Calm,Calm,-,N/A,,Scattered Clouds,0,2012-12-04 14:16:00
5:36 AM,-13.0,-18.4,77,29.52,10.0,NE,4.6,-,N/A,,Clear,50,2012-12-04 14:36:00
5:56 AM,-14.8,-18.4,84,29.52,10.0,East,4.6,-,N/A,,Partly Cloudy,80,2012-12-04 14:56:00
6:16 AM,-11.2,-11.2,100,29.51,10.0,ENE,5.8,-,N/A,,Scattered Clouds,70,2012-12-04 15:16:00
6:36 AM,-11.2,-18.4,70,29.52,10.0,Calm,Calm,-,N/A,,Mostly Cloudy,0,2012-12-04 15:36:00
6:56 AM,-13.0,-20.2,70,29.51,10.0,ENE,4.6,-,N/A,,Mostly Cloudy,60,2012-12-04 15:56:00
7:16 AM,-16.6,-22.0,76,29.51,10.0,ENE,3.5,-,N/A,,Partly Cloudy,70,2012-12-04 16:16:00
7:36 AM,-13.0,-13.0,100,29.51,10.0,ENE,4.6,-,N/A,,Clear,70,2012-12-04 16:36:00
7:56 AM,-16.6,-25.6,64,29.50,10.0,East,3.5,-,N/A,,Clear,100,2012-12-04 16:56:00
8:16 AM,-11.2,-11.2,100,29.50,10.0,ENE,5.8,-,N/A,,Clear,70,2012-12-04 17:16:00
8:36 AM,-9999,-9999,N/A,29.50,10.0,East,3.5,-,N/A,,Mostly Cloudy,80,2012-12-04 17:36:00
8:56 AM,-16.6,-20.2,84,29.50,10.0,ENE,4.6,-,N/A,,Scattered Clouds,70,2012-12-04 17:56:00
9:16 AM,-14.8,-14.8,100,29.50,10.0,ENE,3.5,-,N/A,,Clear,70,2012-12-04 18:16:00
9:36 AM,-14.8,-27.4,53,29.51,10.0,East,3.5,-,N/A,,Clear,80,2012-12-04 18:36:00
9:56 AM,-14.8,-14.8,100,29.51,10.0,ENE,5.8,-,N/A,,Clear,70,2012-12-04 18:56:00
10:16 AM,-14.8,-20.2,77,29.50,10.0,ENE,4.6,-,N/A,,Clear,70,2012-12-04 19:16:00
10:36 AM,-16.6,-23.8,70,29.50,10.0,Calm,Calm,-,N/A,,Clear,0,2012-12-04 19:36:00
10:56 AM,-14.8,-14.8,100,29.50,10.0,East,4.6,-,N/A,,Clear,80,2012-12-04 19:56:00
11:16 AM,-11.2,-16.6,77,29.51,10.0,ENE,4.6,-,N/A,,Clear,70,2012-12-04 20:16:00
11:36 AM,-11.2,-11.2,100,29.51,10.0,East,3.5,-,N/A,,Clear,80,2012-12-04 20:36:00
11:56 AM,-9.4,-16.6,71,29.50,10.0,East,4.6,-,N/A,,Clear,90,2012-12-04 20:56:00
12:16 PM,-9.4,-9.4,100,29.50,10.0,ENE,3.5,-,N/A,,Clear,60,2012-12-04 21:16:00
12:36 PM,-9.4,-11.2,92,29.50,10.0,Calm,Calm,-,N/A,,Clear,0,2012-12-04 21:36:00
12:56 PM,-7.6,-9.4,92,29.50,10.0,ESE,3.5,-,N/A,,Clear,110,2012-12-04 21:56:00
1:16 PM,-5.8,-5.8,100,29.50,10.0,East,5.8,-,N/A,,Clear,90,2012-12-04 22:16:00
1:36 PM,-4.0,-7.6,85,29.50,10.0,East,4.6,-,N/A,,Clear,90,2012-12-04 22:36:00
1:56 PM,-4.0,-7.6,85,29.50,10.0,East,3.5,-,N/A,,Clear,100,2012-12-04 22:56:00
2:16 PM,-4.0,-9.4,78,29.49,10.0,ESE,5.8,-,N/A,,Clear,110,2012-12-04 23:16:00
2:36 PM,-2.2,-5.8,85,29.49,10.0,ESE,6.9,-,N/A,,Clear,110,2012-12-04 23:36:00
2:56 PM,-2.2,-5.8,85,29.49,10.0,East,5.8,-,N/A,,Clear,100,2012-12-04 23:56:00
3:16 PM,-2.2,-7.6,78,29.48,10.0,East,4.6,-,N/A,,Clear,80,2012-12-05 00:16:00
3:36 PM,-5.8,-11.2,77,29.48,10.0,East,4.6,-,N/A,,Clear,100,2012-12-05 00:36:00
3:56 PM,-4.0,-5.8,92,29.48,10.0,East,5.8,-,N/A,,Clear,90,2012-12-05 00:56:00
4:16 PM,-5.8,-9.4,84,29.49,10.0,East,4.6,-,N/A,,Clear,90,2012-12-05 01:16:00
4:36 PM,-7.6,-14.8,71,29.49,10.0,Calm,Calm,-,N/A,,Clear,0,2012-12-05 01:36:00
4:56 PM,-9.4,-11.2,92,29.49,10.0,East,3.5,-,N/A,,Clear,90,2012-12-05 01:56:00
5:16 PM,-9.4,-9.4,100,29.49,10.0,East,3.5,-,N/A,,Clear,90,2012-12-05 02:16:00
5:36 PM,-9.4,-18.4,65,29.49,10.0,East,5.8,-,N/A,,Clear,100,2012-12-05 02:36:00
5:56 PM,-7.6,-7.6,100,29.49,10.0,East,6.9,-,N/A,,Clear,100,2012-12-05 02:56:00
6:16 PM,-7.6,-11.2,84,29.49,10.0,East,4.6,-,N/A,,Clear,80,2012-12-05 03:16:00
6:36 PM,-7.6,-11.2,84,29.48,10.0,East,6.9,-,N/A,,Clear,90,2012-12-05 03:36:00
6:56 PM,-9.4,-11.2,92,29.48,10.0,East,3.5,-,N/A,,Clear,80,2012-12-05 03:56:00
7:16 PM,-9.4,-16.6,71,29.49,10.0,East,3.5,-,N/A,,Clear,90,2012-12-05 04:16:00
7:36 PM,-11.2,-14.8,84,29.50,7.0,Calm,Calm,-,N/A,,Clear,0,2012-12-05 04:36:00
7:56 PM,-14.8,-20.2,77,29.50,10.0,Calm,Calm,-,N/A,,Clear,0,2012-12-05 04:56:00
8:16 PM,-14.8,-18.4,84,29.49,10.0,East,3.5,-,N/A,,Clear,80,2012-12-05 05:16:00
8:36 PM,-13.0,-16.6,84,29.49,10.0,East,3.5,-,N/A,,Clear,80,2012-12-05 05:36:00
8:56 PM,-14.8,-18.4,84,29.49,10.0,East,4.6,-,N/A,,Clear,80,2012-12-05 05:56:00
9:16 PM,-13.0,-18.4,77,29.49,10.0,ENE,4.6,-,N/A,,Clear,70,2012-12-05 06:16:00
9:36 PM,-14.8,-14.8,100,29.50,10.0,East,3.5,-,N/A,,Clear,80,2012-12-05 06:36:00
9:56 PM,-14.8,-25.6,58,29.50,10.0,ENE,3.5,-,N/A,,Clear,60,2012-12-05 06:56:00
10:16 PM,-16.6,-18.4,92,29.50,10.0,ENE,3.5,-,N/A,,Clear,60,2012-12-05 07:16:00
10:36 PM,-16.6,-20.2,84,29.50,10.0,ENE,4.6,-,N/A,,Clear,70,2012-12-05 07:36:00
10:56 PM,-14.8,-14.8,100,29.50,10.0,NE,3.5,-,N/A,,Clear,50,2012-12-05 07:56:00
11:16 PM,-16.6,-27.4,58,29.50,10.0,Calm,Calm,-,N/A,,Clear,0,2012-12-05 08:16:00
11:36 PM,-16.6,-18.4,92,29.51,10.0,Calm,Calm,-,N/A,,Clear,0,2012-12-05 08:36:00
11:56 PM,-16.6,-20.2,84,29.51,10.0,NE,3.5,-,N/A,,Clear,50,2012-12-05 08:56:00